Location: Middle Street
(51.7167°N, 0.0333°E)
Time: 02:14:33
(UTC+00:00)

Cosmos 1844 - Pass Details

Date: 20 January 2021
Orbit: 821 x 869 km, 70.9° (Epoch: 24 February)

Event Time Altitude Azimuth Distance (km) Brightness Sun altitude
Rises 19:30:12 0° 216° (SW) 3,381 7.3 -27.7°
Reaches altitude 10° 19:32:37 10° 218° (SW) 2,458 6.5 -28.1°
Maximum altitude 19:38:16 72° 303° (WNW) 897 3.8 -28.9°
Enters shadow 19:38:49 67° 344° (NNW) 926 3.8 -29.0°
